Theta_e
346 346 345 344 344 344 344 343 343 343 343 343 342 342 342 343 343 343 343 344 344 344 344 344 344 344 344 343 344 342 341 340 340 341 340 339 338 338 335 335 334 333
347 346 345 346 345 345 346 345 345 344 345 344 344 344 344 344 344 343 343 343 343 343 344 345 344 344 343 342 342 341 339 340 340 341 338 339 337 336 335 335 334 333
349 347 346 345 345 345 346 347 346 346 346 345 346 345 344 344 344 344 343 343 342 342 344 345 344 343 343 342 342 340 339 339 338 337 337 336 336 335 335 335 335 334
349 349 347 346 346 345 346 347 346 346 346 345 345 346 345 345 344 343 343 343 342 341 343 344 344 343 342 342 341 340 339 338 338 337 336 336 336 335 334 334 334 334
349 349 349 348 347 347 347 347 346 346 345 345 346 346 344 344 344 343 343 343 342 341 343 344 344 343 342 342 340 339 338 337 337 337 335 334 334 334 334 333 332 331
349 349 349 348 348 347 346 346 347 346 345 345 345 346 345 344 343 342 342 342 342 342 342 343 343 343 342 341 340 339 338 337 336 336 334 333 332 333 333 333 331 330
349 349 348 349 348 348 347 346 346 346 345 345 346 345 345 344 343 342 342 342 342 340 341 342 342 342 341 340 339 338 337 336 336 334 332 332 331 330 330 330 331 330
348 349 349 349 348 347 346 346 346 346 346 345 345 345 345 343 343 342 342 341 340 340 340 341 341 341 340 339 338 337 336 336 335 333 331 330 330 328 329 329 328 327
349 349 349 349 348 347 347 346 346 346 346 344 344 345 344 343 342 342 342 341 340 339 339 340 340 340 340 339 338 336 335 334 334 332 330 329 329 328 328 329 328 327
348 348 348 348 347 347 347 347 347 346 346 345 344 345 344 343 343 343 342 341 340 339 339 339 339 339 339 339 337 336 335 334 333 332 331 330 329 328 328 328 326 325
347 348 347 347 347 347 348 348 347 347 346 344 344 344 344 343 342 342 341 340 340 338 338 337 338 339 339 338 337 336 335 334 332 331 332 330 329 329 330 327 326 324
347 347 346 346 347 347 348 348 348 347 346 345 344 343 343 342 341 342 340 339 339 338 338 337 338 339 339 337 336 335 334 333 332 331 331 331 330 329 328 327 325 323
347 346 346 346 346 347 348 348 348 347 346 345 344 344 342 341 342 341 341 340 340 339 338 337 337 339 339 337 336 335 334 333 332 330 330 329 329 328 328 326 324 323
346 346 345 346 347 347 347 348 348 347 346 345 344 343 342 342 341 341 341 341 340 339 339 337 336 337 337 337 336 335 333 333 332 329 329 328 328 328 327 325 323 322
347 346 345 345 345 346 347 347 347 347 347 345 344 343 343 342 342 342 341 340 340 339 338 337 337 337 337 337 335 334 333 332 331 329 328 327 328 327 326 324 322 321
347 346 345 345 345 345 346 347 347 347 347 345 344 343 343 342 342 342 341 341 339 339 338 338 337 337 329 321 323 332 333 332 331 329 328 327 326 324 323 322 321 320
346 346 345 345 344 344 345 346 346 346 346 345 344 343 342 342 342 341 341 341 340 338 338 338 337 336 317 312 312 316 330 331 330 328 327 327 325 324 321 320 319 319
342 343 344 343 344 343 344 345 345 346 345 345 344 342 342 342 341 341 341 341 340 339 338 338 337 323 309 309 310 310 318 330 328 327 326 325 325 323 320 319 318 317
336 337 338 341 343 343 344 344 344 345 345 344 343 343 342 341 340 341 341 341 340 339 338 338 338 313 306 307 307 307 310 321 327 327 325 325 325 322 319 318 317 317
334 334 334 337 342 343 343 342 342 343 344 345 343 342 341 341 340 340 340 340 340 339 338 338 338 308 305 305 306 305 306 315 327 326 326 326 324 321 319 318 317 316
333 333 333 335 337 341 342 341 342 342 343 344 343 342 341 339 339 339 339 339 339 339 339 337 338 303 303 303 304 305 305 313 327 327 326 326 323 320 319 318 317 317
333 333 333 333 335 339 340 340 340 342 342 343 342 342 341 340 339 339 338 339 340 339 338 337 329 300 302 302 303 304 305 324 326 326 325 323 321 320 319 318 317 316
332 335 333 333 333 335 338 338 339 341 342 342 341 341 340 339 338 338 339 339 339 338 337 336 321 302 301 302 303 302 309 325 325 324 323 322 320 319 318 317 317 316
330 332 332 331 332 333 335 339 339 341 342 341 341 340 339 339 338 338 339 338 337 337 337 336 319 305 300 301 302 302 313 325 325 323 321 321 321 319 318 317 316 316
330 332 331 331 330 330 334 338 338 339 341 342 341 340 339 340 337 338 338 338 338 338 327 332 318 307 299 301 301 302 314 325 325 323 321 321 321 317 316 315 315 314
330 330 329 329 330 331 333 338 338 339 340 341 340 340 339 339 337 337 336 337 337 336 333 332 319 311 303 300 301 301 308 324 325 323 321 320 318 315 314 313 314 313
Wind_Speed
14 13 12 12 11 10 11 12 11 11 11 11 10 10 10 9 10 10 10 10 10 10 9 7 8 8 7 6 6 7 6 6 6 5 5 6 5 6 6 5 4 4
16 15 13 11 10 9 10 12 11 12 11 11 10 9 9 9 10 10 10 11 11 11 9 9 8 9 8 7 7 8 6 6 7 5 6 7 6 6 5 6 6 6
14 15 14 13 13 14 12 12 11 11 10 11 10 9 9 9 10 10 10 10 11 11 11 10 9 9 9 9 8 8 7 8 7 7 7 7 6 6 7 6 5 6
16 15 15 14 13 12 11 11 11 10 10 11 12 11 10 9 10 11 10 11 10 11 11 11 10 10 10 10 9 8 8 8 7 6 6 6 7 7 5 5 4 3
17 16 15 14 13 12 12 12 13 12 12 12 11 11 11 10 10 11 11 10 11 10 10 11 10 10 10 10 9 8 8 7 8 8 7 6 5 5 4 5 5 6
15 15 15 15 14 14 14 14 14 14 13 13 13 11 11 12 11 11 12 11 11 10 11 11 11 10 10 10 9 8 8 8 7 8 8 6 5 5 4 6 8 8
16 15 15 14 15 14 14 14 12 13 14 13 12 12 13 13 13 13 13 12 12 11 11 11 12 11 10 9 9 9 9 9 8 8 8 6 6 6 7 5 6 10
16 15 15 15 15 14 15 14 13 13 14 13 13 13 14 14 14 12 12 13 12 13 11 11 12 12 11 10 10 10 10 9 8 9 9 7 6 6 6 7 6 6
16 16 16 16 17 14 15 16 14 13 14 15 14 13 13 13 13 13 13 14 14 13 13 12 13 12 10 11 11 11 12 10 9 10 9 8 8 8 8 7 6 4
16 16 17 17 17 15 16 16 14 13 13 14 14 12 14 13 13 14 14 14 14 14 14 13 13 12 11 12 12 12 12 12 10 9 9 10 9 9 9 7 7 6
16 16 17 18 18 16 17 17 15 14 13 15 14 13 14 14 13 13 15 14 14 16 15 14 14 13 12 12 11 11 12 11 11 10 8 10 10 9 8 7 7 7
17 16 18 19 18 18 18 17 16 15 14 13 15 15 14 14 14 13 13 14 13 14 14 14 13 13 13 13 12 11 11 11 10 11 9 9 10 8 7 6 4 6
16 17 17 18 18 17 16 16 16 15 15 15 14 15 15 14 15 14 12 14 13 13 14 14 13 13 13 13 13 12 12 11 11 11 9 8 7 7 7 7 7 7
17 16 16 17 17 17 16 16 16 16 15 15 14 15 16 17 16 15 12 12 13 14 15 14 13 14 14 13 13 13 12 11 11 11 11 9 9 9 9 7 7 7
15 15 15 15 16 17 16 16 16 16 15 14 14 14 14 16 14 14 13 14 14 14 15 13 12 13 12 13 14 14 12 12 12 12 12 11 10 9 7 6 6 7
15 14 15 15 15 16 16 16 16 16 15 15 16 16 15 15 14 14 14 14 15 14 14 13 12 11 14 19 17 13 12 11 11 11 12 11 10 8 6 6 7 6
15 14 15 16 15 15 15 16 17 15 15 16 15 15 16 15 15 15 15 14 15 14 14 13 12 11 18 21 21 19 13 11 11 11 11 11 10 10 9 8 6 7
12 12 14 16 16 16 16 17 16 16 16 17 16 15 14 14 15 16 16 14 13 15 14 13 12 13 20 21 21 20 17 12 10 10 10 10 10 10 8 7 7 7
13 13 13 14 16 17 16 16 17 17 17 16 17 16 14 15 17 16 15 15 14 15 15 14 12 14 20 21 21 20 20 16 11 11 11 11 10 11 10 8 7 7
15 15 14 14 15 17 17 17 18 18 17 16 15 14 15 15 16 17 15 16 15 15 14 13 12 13 21 22 21 21 20 17 11 12 12 11 10 11 10 10 9 8
17 17 16 13 13 16 17 17 18 17 17 16 14 16 17 17 17 18 17 16 14 14 14 13 11 17 21 22 22 22 21 17 11 11 11 10 10 10 11 10 10 9
19 18 16 16 18 19 18 18 18 18 18 15 14 14 14 14 13 14 15 14 15 15 14 14 10 20 21 23 23 21 22 14 11 11 10 9 9 9 10 10 10 10
16 15 16 16 13 15 18 19 18 18 17 14 15 15 15 16 16 16 16 16 15 15 15 14 10 18 22 23 23 23 18 13 11 10 10 10 10 9 9 9 10 11
15 14 13 14 14 16 20 18 17 16 17 16 17 16 16 17 16 15 15 15 16 16 15 14 10 16 22 23 24 24 21 15 11 11 11 11 11 10 8 9 10 16
14 12 13 12 12 16 19 18 18 17 16 15 15 15 16 16 15 14 15 14 14 15 17 14 12 16 22 24 25 25 21 14 12 12 12 12 10 10 9 8 9 12
7 12 16 16 18 19 21 20 17 16 16 16 15 14 13 14 14 14 16 15 14 14 13 13 14 16 20 24 24 24 25 16 12 12 13 12 10 11 9 8 8 9
Wind_Direction
189 194 196 193 195 192 185 188 187 190 184 185 191 192 191 184 188 199 194 185 187 195 199 199 184 185 188 182 166 175 175 179 179 176 182 172 180 172 187 196 201 203
187 188 194 193 194 191 191 191 187 189 184 183 188 186 189 183 190 197 198 190 187 194 193 198 187 183 183 187 175 173 175 178 180 173 181 179 187 188 195 200 204 202
190 186 189 192 194 196 195 185 186 185 183 184 183 186 188 187 187 196 200 196 191 192 192 195 192 184 184 186 179 176 176 176 183 181 183 188 187 193 195 199 195 199
194 190 189 193 196 194 194 187 187 185 181 183 189 186 185 187 186 192 200 198 201 195 189 191 192 186 185 187 183 178 178 172 181 179 185 188 191 186 182 175 185 199
193 191 191 191 192 195 196 194 187 187 187 185 182 180 183 186 187 190 199 201 201 197 189 189 192 187 185 186 184 176 179 175 178 185 190 183 177 172 182 179 192 205
197 196 193 191 190 192 197 199 191 188 186 186 185 178 182 185 187 194 198 203 199 201 191 189 191 190 186 186 181 175 176 177 181 179 180 180 178 185 194 193 192 199
195 194 194 193 193 193 196 200 198 190 191 188 178 182 181 184 188 195 199 202 200 203 195 190 192 191 189 184 181 175 174 178 184 179 180 181 183 191 202 215 200 198
195 195 194 194 196 193 195 197 200 194 191 186 184 183 182 186 189 193 199 198 199 201 202 194 195 195 189 183 181 177 173 178 187 186 187 189 180 199 206 203 221 229
195 194 195 194 196 196 197 198 198 196 188 187 187 179 182 187 190 197 201 196 196 198 202 202 195 198 188 184 182 179 175 178 188 189 187 191 183 199 207 203 204 212
197 196 194 194 197 200 200 200 197 196 189 188 187 177 180 185 189 199 206 194 193 197 200 202 199 195 185 187 183 178 178 181 186 186 185 186 194 195 203 204 193 201
199 195 194 194 196 199 202 200 198 195 193 189 185 182 182 186 194 203 203 196 193 196 199 201 199 190 182 188 186 179 180 182 183 187 188 187 191 195 202 199 195 193
201 196 195 195 196 199 200 198 197 196 192 190 184 182 183 186 196 205 201 199 197 193 198 202 195 186 184 188 187 181 183 185 181 185 193 188 188 189 195 191 194 186
203 201 196 195 195 198 198 197 196 196 193 190 184 183 185 188 196 201 195 197 197 194 199 205 195 186 187 188 188 186 187 186 183 182 183 189 191 188 202 195 187 193
201 199 201 198 197 198 197 196 194 195 195 190 186 184 187 191 195 197 191 192 196 197 202 206 196 191 189 185 191 186 186 188 183 176 178 185 192 193 201 194 185 190
199 197 200 203 201 198 196 194 195 195 194 189 185 187 189 193 193 193 191 195 201 201 201 200 198 192 190 184 185 186 186 187 182 178 179 185 192 195 189 175 184 188
201 197 199 202 203 200 196 193 194 193 193 193 189 189 189 190 192 191 194 199 202 202 199 199 199 197 189 179 181 185 184 185 182 181 180 185 182 178 175 179 189 184
201 199 200 203 202 201 197 195 193 191 190 194 192 187 187 189 189 191 196 200 201 203 200 201 201 197 182 175 180 179 180 182 180 179 181 188 180 171 168 180 185 181
195 203 204 202 202 201 199 196 193 192 191 192 192 188 186 184 188 192 196 199 199 202 203 204 205 188 173 175 174 174 174 176 174 174 177 184 182 169 167 173 178 180
193 206 217 211 201 201 198 195 194 193 192 191 190 189 185 185 191 191 193 199 200 201 205 203 207 177 172 171 170 171 170 166 174 175 178 187 183 167 166 171 171 172
197 202 210 220 212 200 198 195 194 193 191 191 190 186 185 187 190 192 193 197 199 201 202 201 202 170 172 170 166 165 163 162 174 178 183 189 179 165 165 170 168 175
198 200 201 208 227 214 198 197 194 192 190 189 188 185 187 188 189 192 195 196 197 198 201 200 194 169 169 168 165 162 162 161 173 180 184 190 175 168 169 168 165 174
201 200 195 201 211 214 204 198 194 192 190 186 186 188 190 189 190 193 192 195 198 197 197 200 174 169 169 165 164 164 161 168 173 178 178 178 169 169 172 166 163 171
198 189 189 201 207 226 215 200 193 190 190 185 186 187 186 188 189 189 192 193 194 194 194 199 165 174 169 165 164 164 164 176 171 175 175 172 169 169 173 167 167 170
199 194 191 192 204 221 223 206 195 189 189 182 185 185 188 190 188 188 191 192 191 195 193 195 157 169 171 167 166 170 172 176 174 174 176 171 170 171 171 173 171 170
201 189 189 188 203 225 231 211 195 191 187 182 187 189 189 190 189 189 190 190 191 195 189 180 143 169 176 169 171 175 176 181 176 177 178 179 172 162 166 172 172 173
277 209 195 197 204 210 223 215 195 190 186 183 185 186 185 186 188 190 189 191 189 190 185 175 154 159 179 173 175 179 181 181 182 179 181 172 162 161 166 178 171 172